Location: *
(44.3925°N, 5.4708°E)
Time: 00:25:36
(UTC+00:00)

MOS 1 - Pass Details

Date: 18 September 2019
Orbit: 878 x 892 km, 99.2° (Epoch: 22 October)

Event Time Altitude Azimuth Distance (km) Brightness Sun altitude
Rises 18:33:07 0° 153° (SSE) 3,489 7.0 -9.5°
Reaches altitude 10° 18:35:31 10° 150° (SSE) 2,553 6.3 -10.0°
Maximum altitude 18:41:07 63° 71° (ENE) 994 4.3 -10.9°
Drops below altitude 10° 18:46:45 10° 352° (N) 2,563 7.0 -11.9°
Sets 18:49:10 0° 349° (N) 3,505 7.8 -12.3°
